Location: Park Creek Village Mobile Home Park
(38.2885°N, 122.4714°W)
Time: 21:45:15
(UTC+00:00)

Cosmos 2263 Rocket - Pass Details

Date: 14 December 2019
Orbit: 824 x 848 km, 71.0° (Epoch: 17 January)

Event Time Altitude Azimuth Distance (km) Brightness Sun altitude
Exits shadow 14:08:41 13° 322° (NW) 2,202 3.9 -13.4°
Drops below altitude 10° 14:10:27 10° 340° (NNW) 2,431 4.2 -13.0°
Sets 14:14:14 0° 6° (N) 3,367 5.2 -12.3°
